Location: Follega
(52.8850°N, 5.7362°E)
Time: 04:32:32
(UTC+00:00)

Cosmos 2297 Rocket - Pass Details

Date: 05 October 2020
Orbit: 838 x 845 km, 71.0° (Epoch: 26 October)

Event Time Altitude Azimuth Distance (km) Brightness Sun altitude
Rises 21:48:00 0° 328° (NNW) 3,417 6.3 -38.3°
Reaches altitude 10° 21:50:27 10° 329° (NNW) 2,479 5.3 -38.5°
Enters shadow 21:53:01 28° 332° (NNW) 1,549 4.0 -38.7°
